TimeCDT,TemperatureF,Dew PointF,Humidity,Sea Level PressureIn,VisibilityMPH,Wind Direction,Wind SpeedMPH,Gust SpeedMPH,PrecipitationIn,Events,Conditions,WindDirDegrees,DateUTC
12:15 AM,53.8,41.9,64,29.92,10.0,SSE,9.2,-,N/A,,Clear,160,2013-09-25 05:15:00
12:35 AM,53.6,41.5,64,29.91,10.0,SSE,11.5,-,N/A,,Clear,160,2013-09-25 05:35:00
12:55 AM,53.6,41.2,63,29.90,10.0,SSE,11.5,-,N/A,,Clear,160,2013-09-25 05:55:00
1:15 AM,52.9,41.2,64,29.90,10.0,South,10.4,-,N/A,,Clear,170,2013-09-25 06:15:00
1:35 AM,52.3,41.4,66,29.89,10.0,South,10.4,-,N/A,,Clear,170,2013-09-25 06:35:00
1:55 AM,51.8,41.2,67,29.88,10.0,South,9.2,-,N/A,,Clear,170,2013-09-25 06:55:00
2:35 AM,52.5,40.6,64,29.87,10.0,SSE,11.5,-,N/A,,Clear,160,2013-09-25 07:35:00
2:55 AM,53.8,40.6,61,29.86,10.0,SSE,16.1,-,N/A,,Clear,160,2013-09-25 07:55:00
3:15 AM,53.6,40.5,61,29.85,10.0,SSE,16.1,-,N/A,,Clear,150,2013-09-25 08:15:00
3:35 AM,53.1,40.3,62,29.83,10.0,SSE,17.3,-,N/A,,Clear,160,2013-09-25 08:35:00
3:55 AM,53.1,40.3,62,29.83,10.0,SSE,12.7,-,N/A,,Clear,160,2013-09-25 08:55:00
4:35 AM,51.1,40.5,67,29.83,10.0,SE,5.8,-,N/A,,Clear,140,2013-09-25 09:35:00
4:55 AM,50.9,40.5,67,29.82,10.0,South,10.4,-,N/A,,Clear,170,2013-09-25 09:55:00
5:15 AM,50.0,40.5,70,29.82,10.0,Calm,Calm,-,N/A,,Clear,0,2013-09-25 10:15:00
5:35 AM,48.4,41.0,76,29.82,10.0,Calm,Calm,-,N/A,,Clear,0,2013-09-25 10:35:00
5:55 AM,47.3,40.8,78,29.80,10.0,SSE,5.8,-,N/A,,Clear,160,2013-09-25 10:55:00
6:15 AM,46.4,41.0,81,29.80,10.0,South,3.5,-,N/A,,Clear,190,2013-09-25 11:15:00
6:35 AM,45.7,41.0,84,29.80,10.0,SSW,6.9,-,N/A,,Clear,200,2013-09-25 11:35:00
6:55 AM,45.5,40.8,84,29.80,10.0,WNW,3.5,-,N/A,,Clear,290,2013-09-25 11:55:00
7:15 AM,44.2,41.0,88,29.80,10.0,SW,5.8,-,N/A,,Clear,230,2013-09-25 12:15:00
7:35 AM,44.1,41.0,89,29.79,10.0,SW,5.8,-,N/A,,Clear,220,2013-09-25 12:35:00
7:55 AM,43.9,40.5,88,29.79,10.0,Calm,Calm,-,N/A,,Clear,0,2013-09-25 12:55:00
8:15 AM,44.1,41.4,90,29.78,10.0,South,5.8,-,N/A,,Clear,170,2013-09-25 13:15:00
8:35 AM,46.8,42.6,85,29.78,10.0,Calm,Calm,-,N/A,,Clear,0,2013-09-25 13:35:00
8:55 AM,47.7,43.2,84,29.77,10.0,Calm,Calm,-,N/A,,Clear,0,2013-09-25 13:55:00
9:15 AM,50.0,42.6,76,29.77,10.0,South,3.5,-,N/A,,Clear,190,2013-09-25 14:15:00
9:35 AM,50.9,43.5,76,29.77,10.0,Calm,Calm,-,N/A,,Clear,0,2013-09-25 14:35:00
9:55 AM,52.5,43.7,72,29.77,10.0,SSE,3.5,-,N/A,,Clear,160,2013-09-25 14:55:00
10:15 AM,54.3,45.0,71,29.77,10.0,SSE,4.6,-,N/A,,Clear,150,2013-09-25 15:15:00
10:35 AM,57.0,45.9,66,29.77,10.0,SSE,5.8,-,N/A,,Clear,160,2013-09-25 15:35:00
10:55 AM,58.8,46.6,64,29.75,10.0,South,5.8,-,N/A,,Clear,170,2013-09-25 15:55:00
11:15 AM,61.7,47.3,59,29.75,10.0,South,4.6,-,N/A,,Clear,180,2013-09-25 16:15:00
11:35 AM,63.9,47.5,55,29.74,10.0,South,5.8,-,N/A,,Clear,180,2013-09-25 16:35:00
11:55 AM,66.4,48.4,52,29.72,10.0,SE,8.1,-,N/A,,Clear,140,2013-09-25 16:55:00
12:15 PM,67.5,47.1,48,29.72,10.0,South,8.1,-,N/A,,Clear,170,2013-09-25 17:15:00
12:35 PM,69.6,48.2,46,29.71,10.0,SSE,10.4,-,N/A,,Clear,160,2013-09-25 17:35:00
1:15 PM,70.0,48.9,47,29.68,10.0,SSE,13.8,-,N/A,,Clear,160,2013-09-25 18:15:00
1:35 PM,70.5,49.5,47,29.67,10.0,SSE,12.7,18.4,N/A,,Clear,160,2013-09-25 18:35:00
1:55 PM,70.7,48.6,45,29.66,10.0,SSE,13.8,-,N/A,,Clear,150,2013-09-25 18:55:00
2:15 PM,71.1,49.8,47,29.65,10.0,SSE,16.1,-,N/A,,Clear,150,2013-09-25 19:15:00
2:35 PM,71.1,49.5,46,29.64,10.0,SSE,16.1,-,N/A,,Clear,150,2013-09-25 19:35:00
2:55 PM,71.6,49.6,46,29.62,10.0,SE,16.1,21.9,N/A,,Clear,140,2013-09-25 19:55:00
3:15 PM,72.5,48.0,42,29.61,10.0,SE,19.6,-,N/A,,Clear,140,2013-09-25 20:15:00
3:55 PM,73.4,46.9,39,29.60,10.0,SE,15.0,-,N/A,,Clear,140,2013-09-25 20:55:00
4:15 PM,73.9,45.1,36,29.59,10.0,SSE,20.7,-,N/A,,Clear,150,2013-09-25 21:15:00
4:35 PM,74.5,45.5,36,29.58,10.0,SSE,17.3,26.5,N/A,,Clear,150,2013-09-25 21:35:00
4:55 PM,76.1,45.5,34,29.57,10.0,SSE,18.4,23.0,N/A,,Clear,160,2013-09-25 21:55:00
5:15 PM,77.0,42.6,29,29.56,10.0,SSE,17.3,24.2,N/A,,Clear,150,2013-09-25 22:15:00
5:35 PM,77.4,43.0,29,29.55,10.0,SE,17.3,24.2,N/A,,Clear,130,2013-09-25 22:35:00
5:55 PM,77.9,43.2,29,29.55,10.0,SE,19.6,25.3,N/A,,Clear,140,2013-09-25 22:55:00
6:15 PM,77.9,43.3,29,29.53,10.0,SE,17.3,-,N/A,,Clear,130,2013-09-25 23:15:00
6:35 PM,76.8,43.9,31,29.53,10.0,SE,13.8,-,N/A,,Clear,130,2013-09-25 23:35:00
6:55 PM,75.2,45.5,35,29.53,10.0,SE,10.4,-,N/A,,Clear,130,2013-09-25 23:55:00
7:15 PM,72.5,45.5,38,29.52,10.0,SSE,10.4,-,N/A,,Clear,150,2013-09-26 00:15:00
7:35 PM,69.4,43.7,39,29.51,10.0,SE,10.4,-,N/A,,Clear,140,2013-09-26 00:35:00
7:55 PM,65.8,45.3,47,29.51,10.0,SE,9.2,-,N/A,,Clear,130,2013-09-26 00:55:00
8:15 PM,61.7,45.5,55,29.50,10.0,ESE,6.9,-,N/A,,Clear,120,2013-09-26 01:15:00
8:35 PM,60.3,46.2,60,29.50,7.0,SE,3.5,-,N/A,,Clear,130,2013-09-26 01:35:00
8:55 PM,60.8,44.6,55,29.51,10.0,SSE,6.9,-,N/A,,Clear,150,2013-09-26 01:55:00
9:15 PM,62.2,43.2,50,29.51,10.0,SSE,11.5,-,N/A,,Clear,160,2013-09-26 02:15:00
9:35 PM,64.2,42.1,44,29.51,10.0,South,11.5,-,N/A,,Clear,170,2013-09-26 02:35:00
9:55 PM,62.2,43.2,50,29.51,10.0,South,10.4,-,N/A,,Clear,170,2013-09-26 02:55:00
10:15 PM,58.5,44.6,60,29.53,10.0,SW,9.2,-,N/A,,Clear,220,2013-09-26 03:15:00
10:35 PM,57.2,44.8,63,29.53,10.0,South,9.2,-,N/A,,Clear,190,2013-09-26 03:35:00
10:55 PM,58.3,43.7,58,29.52,10.0,South,9.2,-,N/A,,Clear,190,2013-09-26 03:55:00
11:15 PM,61.7,41.9,48,29.56,10.0,WNW,15.0,-,N/A,,Clear,300,2013-09-26 04:15:00
11:35 PM,60.1,43.2,54,29.56,10.0,NW,18.4,24.2,N/A,,Clear,320,2013-09-26 04:35:00
11:55 PM,58.6,41.9,54,29.57,10.0,NW,17.3,23.0,N/A,,Clear,320,2013-09-26 04:55:00